Time,TemperatureF,DewpointF,PressureIn,WindDirection,WindDirectionDegrees,WindSpeedMPH,WindSpeedGustMPH,Humidity,HourlyPrecipIn,Conditions,Clouds,dailyrainin,SolarRadiationWatts/m^2,SoftwareType,DateUTC
2013-01-08 00:02:00,27.0,20.0,-100.00,WSW,245,4.0,10.0,76,0.00,,,0.03,1.000000,,2013-01-08 06:02:00,
2013-01-08 00:12:00,27.0,20.0,-100.00,WSW,245,4.0,10.0,76,0.00,,,0.03,1.000000,,2013-01-08 06:12:00,
2013-01-08 00:22:00,27.0,20.0,-100.00,WSW,245,4.0,10.0,76,0.00,,,0.03,1.000000,,2013-01-08 06:22:00,
2013-01-08 00:33:00,27.0,20.0,-100.00,WSW,245,4.0,10.0,76,0.00,,,0.03,1.000000,,2013-01-08 06:33:00,
2013-01-08 01:02:00,27.0,21.0,-100.00,WSW,240,5.0,9.0,77,0.00,,,0.03,1.000000,,2013-01-08 07:02:00,
2013-01-08 01:12:00,27.0,21.0,-100.00,WSW,240,5.0,9.0,77,0.00,,,0.03,1.000000,,2013-01-08 07:12:00,
2013-01-08 01:22:00,27.0,21.0,-100.00,WSW,240,5.0,9.0,77,0.00,,,0.03,1.000000,,2013-01-08 07:22:00,
2013-01-08 01:32:00,27.0,21.0,-100.00,WSW,240,5.0,9.0,77,0.00,,,0.03,1.000000,,2013-01-08 07:32:00,
2013-01-08 01:52:00,26.0,20.0,-100.00,SW,235,3.0,9.0,79,0.00,,,0.03,1.000000,,2013-01-08 07:52:00,
2013-01-08 02:02:00,26.0,20.0,-100.00,SW,235,3.0,9.0,79,0.00,,,0.03,1.000000,,2013-01-08 08:02:00,
2013-01-08 02:12:00,26.0,20.0,-100.00,SW,235,3.0,9.0,79,0.00,,,0.03,1.000000,,2013-01-08 08:12:00,
2013-01-08 02:22:00,26.0,20.0,-100.00,SW,235,3.0,9.0,79,0.00,,,0.03,1.000000,,2013-01-08 08:22:00,
2013-01-08 02:32:00,26.0,20.0,-100.00,SW,235,3.0,9.0,79,0.00,,,0.03,1.000000,,2013-01-08 08:32:00,
2013-01-08 02:53:00,23.0,19.0,-100.00,SW,223,3.0,8.0,85,0.00,,,0.03,1.000000,,2013-01-08 08:53:00,
2013-01-08 03:02:00,23.0,19.0,-100.00,SW,223,3.0,8.0,85,0.00,,,0.03,1.000000,,2013-01-08 09:02:00,
2013-01-08 03:12:00,23.0,19.0,-100.00,SW,223,3.0,8.0,85,0.00,,,0.03,1.000000,,2013-01-08 09:12:00,
2013-01-08 03:22:00,23.0,19.0,-100.00,SW,223,3.0,8.0,85,0.00,,,0.03,1.000000,,2013-01-08 09:22:00,
2013-01-08 03:32:00,23.0,19.0,-100.00,SW,223,3.0,8.0,85,0.00,,,0.03,1.000000,,2013-01-08 09:32:00,
2013-01-08 04:02:00,21.0,18.0,-100.00,SSW,198,2.0,5.0,88,0.00,,,0.03,1.000000,,2013-01-08 10:02:00,
2013-01-08 04:12:00,21.0,18.0,-100.00,SSW,198,2.0,5.0,88,0.00,,,0.03,1.000000,,2013-01-08 10:12:00,
2013-01-08 04:22:00,21.0,18.0,-100.00,SSW,198,2.0,5.0,88,0.00,,,0.03,1.000000,,2013-01-08 10:22:00,
2013-01-08 04:32:00,21.0,18.0,-100.00,SSW,198,2.0,5.0,88,0.00,,,0.03,1.000000,,2013-01-08 10:32:00,
2013-01-08 05:02:00,18.0,16.0,-100.00,SSE,159,1.0,5.0,90,0.00,,,0.03,1.000000,,2013-01-08 11:02:00,
2013-01-08 05:12:00,18.0,16.0,-100.00,SSE,159,1.0,5.0,90,0.00,,,0.03,1.000000,,2013-01-08 11:12:00,
2013-01-08 05:22:00,18.0,16.0,-100.00,SSE,159,1.0,5.0,90,0.00,,,0.03,1.000000,,2013-01-08 11:22:00,
2013-01-08 05:32:00,18.0,16.0,-100.00,SSE,159,1.0,5.0,90,0.00,,,0.03,1.000000,,2013-01-08 11:32:00,
2013-01-08 05:53:00,15.0,12.0,-100.00,SW,217,1.0,2.0,88,0.00,,,0.03,1.000000,,2013-01-08 11:53:00,
2013-01-08 06:03:00,15.0,12.0,-100.00,SW,217,1.0,2.0,88,0.00,,,0.03,1.000000,,2013-01-08 12:03:00,
2013-01-08 06:12:00,15.0,12.0,-100.00,SW,217,1.0,2.0,88,0.00,,,0.03,1.000000,,2013-01-08 12:12:00,
2013-01-08 06:22:00,15.0,12.0,-100.00,SW,217,1.0,2.0,88,0.00,,,0.03,1.000000,,2013-01-08 12:22:00,
2013-01-08 06:32:00,15.0,12.0,-100.00,SW,217,1.0,2.0,88,0.00,,,0.03,1.000000,,2013-01-08 12:32:00,
2013-01-08 06:53:00,13.0,10.0,-100.00,SW,215,1.0,2.0,88,0.00,,,0.03,1.000000,,2013-01-08 12:53:00,
2013-01-08 07:03:00,13.0,10.0,-100.00,SW,215,1.0,2.0,88,0.00,,,0.03,1.000000,,2013-01-08 13:03:00,
2013-01-08 07:12:00,13.0,10.0,-100.00,SW,215,1.0,2.0,88,0.00,,,0.03,1.000000,,2013-01-08 13:12:00,
2013-01-08 07:22:00,13.0,10.0,-100.00,SW,215,1.0,2.0,88,0.00,,,0.03,1.000000,,2013-01-08 13:22:00,
2013-01-08 07:32:00,13.0,10.0,-100.00,SW,215,1.0,2.0,88,0.00,,,0.03,1.000000,,2013-01-08 13:32:00,
2013-01-08 08:02:00,12.0,9.0,-100.00,SW,226,0.0,2.0,87,0.00,,,0.03,1.000000,,2013-01-08 14:02:00,
2013-01-08 08:12:00,12.0,9.0,-100.00,SW,226,0.0,2.0,87,0.00,,,0.03,1.000000,,2013-01-08 14:12:00,
2013-01-08 08:23:00,12.0,9.0,-100.00,SW,226,0.0,2.0,87,0.00,,,0.03,1.000000,,2013-01-08 14:23:00,
2013-01-08 08:33:00,12.0,9.0,-100.00,SW,226,0.0,2.0,87,0.00,,,0.03,1.000000,,2013-01-08 14:33:00,
2013-01-08 08:53:00,16.0,14.0,-100.00,SW,220,3.0,5.0,90,0.00,,,0.03,14.000000,,2013-01-08 14:53:00,
2013-01-08 09:03:00,16.0,14.0,-100.00,SW,220,3.0,5.0,90,0.00,,,0.03,14.000000,,2013-01-08 15:03:00,
2013-01-08 09:12:00,16.0,14.0,-100.00,SW,220,3.0,5.0,90,0.00,,,0.03,14.000000,,2013-01-08 15:12:00,
2013-01-08 09:22:00,16.0,14.0,-100.00,SW,220,3.0,5.0,90,0.00,,,0.03,14.000000,,2013-01-08 15:22:00,
2013-01-08 09:33:00,16.0,14.0,-100.00,SW,220,3.0,5.0,90,0.00,,,0.03,14.000000,,2013-01-08 15:33:00,
2013-01-08 10:03:00,25.0,21.0,-100.00,South,179,1.0,4.0,86,0.00,,,0.03,83.000000,,2013-01-08 16:03:00,
2013-01-08 10:12:00,25.0,21.0,-100.00,South,179,1.0,4.0,86,0.00,,,0.03,83.000000,,2013-01-08 16:12:00,
2013-01-08 10:22:00,25.0,21.0,-100.00,South,179,1.0,4.0,86,0.00,,,0.03,83.000000,,2013-01-08 16:22:00,
2013-01-08 10:33:00,25.0,21.0,-100.00,South,179,1.0,4.0,86,0.00,,,0.03,83.000000,,2013-01-08 16:33:00,
2013-01-08 11:03:00,32.0,23.0,-100.00,SW,218,3.0,5.0,70,0.00,,,0.03,250.000000,,2013-01-08 17:03:00,
2013-01-08 11:13:00,32.0,23.0,-100.00,SW,218,3.0,5.0,70,0.00,,,0.03,250.000000,,2013-01-08 17:13:00,
2013-01-08 11:23:00,32.0,23.0,-100.00,SW,218,3.0,5.0,70,0.00,,,0.03,250.000000,,2013-01-08 17:23:00,
2013-01-08 11:33:00,32.0,23.0,-100.00,SW,218,3.0,5.0,70,0.00,,,0.03,250.000000,,2013-01-08 17:33:00,
2013-01-08 12:03:00,37.0,23.0,-100.00,SSW,207,4.0,7.0,57,0.01,,,0.03,323.000000,,2013-01-08 18:03:00,
2013-01-08 12:13:00,37.0,23.0,-100.00,SSW,207,4.0,7.0,57,0.01,,,0.03,323.000000,,2013-01-08 18:13:00,
2013-01-08 12:23:00,37.0,23.0,-100.00,SSW,207,4.0,7.0,57,0.01,,,0.03,323.000000,,2013-01-08 18:23:00,
2013-01-08 12:33:00,37.0,23.0,-100.00,SSW,207,4.0,7.0,57,0.01,,,0.03,323.000000,,2013-01-08 18:33:00,
2013-01-08 12:53:00,38.0,22.0,-100.00,South,189,3.0,9.0,52,0.01,,,0.04,222.000000,,2013-01-08 18:53:00,
2013-01-08 13:03:00,38.0,22.0,-100.00,South,189,3.0,9.0,52,0.01,,,0.04,222.000000,,2013-01-08 19:03:00,
2013-01-08 13:12:00,38.0,22.0,-100.00,South,189,3.0,9.0,52,0.01,,,0.04,222.000000,,2013-01-08 19:12:00,
2013-01-08 13:22:00,38.0,22.0,-100.00,South,189,3.0,9.0,52,0.01,,,0.04,222.000000,,2013-01-08 19:22:00,
2013-01-08 13:32:00,38.0,22.0,-100.00,South,189,3.0,9.0,52,0.01,,,0.04,222.000000,,2013-01-08 19:32:00,
2013-01-08 13:53:00,40.0,21.0,-100.00,South,176,4.0,8.0,47,0.02,,,0.05,209.000000,,2013-01-08 19:53:00,
2013-01-08 14:03:00,40.0,21.0,-100.00,South,176,4.0,8.0,47,0.02,,,0.05,209.000000,,2013-01-08 20:03:00,
2013-01-08 14:12:00,40.0,21.0,-100.00,South,176,4.0,8.0,47,0.02,,,0.05,209.000000,,2013-01-08 20:12:00,
2013-01-08 14:23:00,40.0,21.0,-100.00,South,176,4.0,8.0,47,0.02,,,0.05,209.000000,,2013-01-08 20:23:00,
2013-01-08 14:33:00,40.0,21.0,-100.00,South,176,4.0,8.0,47,0.02,,,0.05,209.000000,,2013-01-08 20:33:00,
2013-01-08 14:54:00,43.0,20.0,-100.00,South,179,5.0,11.0,40,0.01,,,0.06,195.000000,,2013-01-08 20:54:00,
2013-01-08 15:03:00,43.0,20.0,-100.00,South,179,5.0,11.0,40,0.01,,,0.06,195.000000,,2013-01-08 21:03:00,
2013-01-08 15:13:00,43.0,20.0,-100.00,South,179,5.0,11.0,40,0.01,,,0.06,195.000000,,2013-01-08 21:13:00,
2013-01-08 15:23:00,43.0,20.0,-100.00,South,179,5.0,11.0,40,0.01,,,0.06,195.000000,,2013-01-08 21:23:00,
2013-01-08 15:33:00,43.0,20.0,-100.00,South,179,5.0,11.0,40,0.01,,,0.06,195.000000,,2013-01-08 21:33:00,
2013-01-08 15:53:00,41.0,18.0,-100.00,SSE,168,4.0,11.0,39,0.01,,,0.07,162.000000,,2013-01-08 21:53:00,
2013-01-08 16:03:00,41.0,18.0,-100.00,SSE,168,4.0,11.0,39,0.01,,,0.07,162.000000,,2013-01-08 22:03:00,
2013-01-08 16:12:00,41.0,18.0,-100.00,SSE,168,4.0,11.0,39,0.01,,,0.07,162.000000,,2013-01-08 22:12:00,
2013-01-08 16:23:00,41.0,18.0,-100.00,SSE,168,4.0,11.0,39,0.01,,,0.07,162.000000,,2013-01-08 22:23:00,
2013-01-08 16:33:00,41.0,18.0,-100.00,SSE,168,4.0,11.0,39,0.01,,,0.07,162.000000,,2013-01-08 22:33:00,
2013-01-08 16:53:00,37.0,20.0,-100.00,South,183,5.0,14.0,49,0.00,,,0.06,13.000000,,2013-01-08 22:53:00,
2013-01-08 17:02:00,37.0,20.0,-100.00,South,183,5.0,14.0,49,0.00,,,0.06,13.000000,,2013-01-08 23:02:00,
2013-01-08 17:12:00,37.0,20.0,-100.00,South,183,5.0,14.0,49,0.00,,,0.06,13.000000,,2013-01-08 23:12:00,
2013-01-08 17:22:00,37.0,20.0,-100.00,South,183,5.0,14.0,49,0.00,,,0.06,13.000000,,2013-01-08 23:22:00,
2013-01-08 17:32:00,37.0,20.0,-100.00,South,183,5.0,14.0,49,0.00,,,0.06,13.000000,,2013-01-08 23:32:00,
2013-01-08 18:03:00,34.0,22.0,-100.00,South,177,5.0,14.0,61,0.00,,,0.06,1.000000,,2013-01-09 00:03:00,
2013-01-08 18:12:00,34.0,22.0,-100.00,South,177,5.0,14.0,61,0.00,,,0.06,1.000000,,2013-01-09 00:12:00,
2013-01-08 18:22:00,34.0,22.0,-100.00,South,177,5.0,14.0,61,0.00,,,0.06,1.000000,,2013-01-09 00:22:00,
2013-01-08 18:33:00,34.0,22.0,-100.00,South,177,5.0,14.0,61,0.00,,,0.06,1.000000,,2013-01-09 00:33:00,
2013-01-08 19:02:00,32.0,23.0,-100.00,South,183,5.0,13.0,68,0.00,,,0.06,1.000000,,2013-01-09 01:02:00,
2013-01-08 19:12:00,32.0,23.0,-100.00,South,183,5.0,13.0,68,0.00,,,0.06,1.000000,,2013-01-09 01:12:00,
2013-01-08 19:22:00,32.0,23.0,-100.00,South,183,5.0,13.0,68,0.00,,,0.06,1.000000,,2013-01-09 01:22:00,
2013-01-08 19:32:00,32.0,23.0,-100.00,South,183,5.0,13.0,68,0.00,,,0.06,1.000000,,2013-01-09 01:32:00,
2013-01-08 19:52:00,31.0,23.0,-100.00,SSW,202,6.0,15.0,73,0.00,,,0.06,1.000000,,2013-01-09 01:52:00,
2013-01-08 20:02:00,31.0,23.0,-100.00,SSW,202,6.0,15.0,73,0.00,,,0.06,1.000000,,2013-01-09 02:02:00,
2013-01-08 20:12:00,31.0,23.0,-100.00,SSW,202,6.0,15.0,73,0.00,,,0.06,1.000000,,2013-01-09 02:12:00,
2013-01-08 20:22:00,31.0,23.0,-100.00,SSW,202,6.0,15.0,73,0.00,,,0.06,1.000000,,2013-01-09 02:22:00,
2013-01-08 20:33:00,31.0,23.0,-100.00,SSW,202,6.0,15.0,73,0.00,,,0.06,1.000000,,2013-01-09 02:33:00,
2013-01-08 20:53:00,31.0,24.0,-100.00,SSW,211,6.0,16.0,75,0.00,,,0.06,1.000000,,2013-01-09 02:53:00,
2013-01-08 21:03:00,31.0,24.0,-100.00,SSW,211,6.0,16.0,75,0.00,,,0.06,1.000000,,2013-01-09 03:03:00,
2013-01-08 21:12:00,31.0,24.0,-100.00,SSW,211,6.0,16.0,75,0.00,,,0.06,1.000000,,2013-01-09 03:12:00,
2013-01-08 21:22:00,31.0,24.0,-100.00,SSW,211,6.0,16.0,75,0.00,,,0.06,1.000000,,2013-01-09 03:22:00,
2013-01-08 21:33:00,31.0,24.0,-100.00,SSW,211,6.0,16.0,75,0.00,,,0.06,1.000000,,2013-01-09 03:33:00,
2013-01-08 22:02:00,32.0,25.0,-100.00,SW,215,5.0,17.0,75,0.00,,,0.06,1.000000,,2013-01-09 04:02:00,
2013-01-08 22:12:00,32.0,25.0,-100.00,SW,215,5.0,17.0,75,0.00,,,0.06,1.000000,,2013-01-09 04:12:00,
2013-01-08 22:22:00,32.0,25.0,-100.00,SW,215,5.0,17.0,75,0.00,,,0.06,1.000000,,2013-01-09 04:22:00,
2013-01-08 22:32:00,32.0,25.0,-100.00,SW,215,5.0,17.0,75,0.00,,,0.06,1.000000,,2013-01-09 04:32:00,
2013-01-08 23:03:00,33.0,26.0,-100.00,SW,224,8.0,18.0,75,0.00,,,0.06,1.000000,,2013-01-09 05:03:00,
2013-01-08 23:12:00,33.0,26.0,-100.00,SW,224,8.0,18.0,75,0.00,,,0.06,1.000000,,2013-01-09 05:12:00,
2013-01-08 23:22:00,33.0,26.0,-100.00,SW,224,8.0,18.0,75,0.00,,,0.06,1.000000,,2013-01-09 05:22:00,
2013-01-08 23:33:00,33.0,26.0,-100.00,SW,224,8.0,18.0,75,0.00,,,0.06,1.000000,,2013-01-09 05:33:00,
2013-01-08 23:53:00,33.0,27.0,-100.00,SW,231,7.0,18.0,77,0.00,,,0.06,1.000000,,2013-01-09 05:53:00,